[[{"header":{"parameterUnit":"m.s-1","parameterCategory":2,"la1":30.2991,"la2":30.254,"lo1":-89.0895,"lo2":-89.0444,"dy":0.0017,"dx":0.0017,"nx":28,"ny":28,"refTime":"2024-04-15T03:00:00:Z","depth":"0","parameterNumber":2,"parameterNumberName":"U-component_of_CURRENTS"},"data":[0,0,0,0,0,0,0,0,0,0,0,0,0,0,0,0,0,0,0,0,0,0,0,0,0,0,0,0,0,0,0,0,0,0,0,0,0,0,0,0,0,0,0,0,0,0,0,0,0,0,0,0,0,0,0,0,0,0,-0.1961,-0.1961,0,-0.1979,-0.1979,-0.1979,-0.1973,-0.1973,-0.1973,-0.1973,-0.1999,-0.2,-0.2001,0,0,0,0,0,0,0,0,0,0,0,0,0,-0.191,-0.1911,-0.1961,-0.1961,-0.1961,-0.1979,-0.1979,-0.1979,-0.1973,-0.1973,-0.1973,-0.1973,-0.1999,-0.2,-0.2001,0,0,0,0,0,0,0,0,0,0,0,0,0,-0.1929,-0.1911,-0.1961,-0.1962,-0.1963,-0.1979,-0.1979,-0.1979,-0.1974,-0.1973,-0.1973,-0.1973,-0.1999,-0.2,-0.2001,-0.2016,0,0,-0.2006,-0.2006,0,0,0,0,0,0,0,0,-0.1928,-0.193,-0.1962,-0.1962,-0.1963,-0.1975,-0.1971,-0.1992,-0.1974,-0.1967,-0.1973,-0.1973,-0.1994,-0.1995,-0.1997,-0.2017,-0.2018,-0.2006,-0.2006,-0.2007,-0.2007,0,0,0,0,0,0,0,-0.1926,-0.1929,-0.1966,-0.1962,-0.1963,-0.1958,-0.196,-0.1974,-0.1981,-0.1968,-0.1968,-0.1973,-0.1994,-0.1995,-0.1997,-0.2018,-0.2006,-0.2007,-0.2008,-0.2008,-0.1994,-0.1993,0,0,0,0,0,0,-0.1929,-0.1928,-0.1965,-0.1967,-0.1946,-0.196,-0.1962,-0.197,-0.198,-0.1982,-0.1973,-0.1973,-0.1993,-0.1996,-0.1998,-0.1989,-0.2007,-0.2008,-0.2009,-0.1996,-0.1994,-0.1993,0,0,0,0,0,0,-0.1928,-0.1932,-0.1965,-0.1949,-0.1953,-0.1961,-0.197,-0.197,-0.1972,-0.1985,-0.1986,-0.1975,-0.1993,-0.1996,-0.1996,-0.1991,-0.2009,-0.201,-0.1997,-0.1995,-0.1994,-0.1988,0,0,0,0,0,0,-0.1926,-0.1932,-0.1935,-0.1949,-0.1954,-0.1969,-0.197,-0.1971,-0.1977,-0.1976,-0.1986,-0.1988,-0.1993,-0.1994,-0.1998,-0.1993,-0.2011,-0.1998,-0.1996,-0.1994,-0.1989,-0.1986,-0.1983,0,0,0,0,0,-0.1925,-0.193,-0.1935,-0.1939,-0.1959,-0.1969,-0.197,-0.1974,-0.1977,-0.1974,-0.1975,-0.1988,-0.1982,-0.1995,-0.1999,-0.1995,-0.1999,-0.1997,-0.1994,-0.1991,-0.1987,-0.1983,0,0,0,0,0,0,-0.191,-0.1931,-0.1936,-0.1948,-0.1956,-0.1969,-0.1969,-0.1975,-0.1975,-0.1975,-0.1983,-0.1985,-0.1976,-0.1984,-0.1998,-0.1979,-0.1989,-0.1988,-0.1985,-0.1982,-0.1979,-0.1972,-0.2012,0,0,0,0,0,-0.191,-0.1916,-0.1936,-0.1942,-0.1949,-0.196,-0.1964,-0.1969,-0.1974,-0.1973,-0.1978,-0.1977,-0.1969,-0.1975,-0.1968,-0.1974,-0.1974,-0.1968,-0.1965,-0.1962,-0.1957,-0.1945,-0.1941,-0.1984,-0.1984,-0.1984,0,0,-0.1905,-0.1918,-0.1921,-0.1939,-0.1946,-0.1955,-0.1961,-0.1969,-0.1969,-0.1978,-0.1974,-0.1967,-0.1964,-0.1955,-0.1953,-0.1966,-0.195,-0.1959,-0.1957,-0.1953,-0.1942,-0.1938,-0.1935,-0.1982,-0.1983,-0.1983,0,0,-0.1898,-0.1912,-0.1915,-0.1926,-0.1941,-0.1949,-0.1953,-0.1965,-0.1962,-0.1964,-0.1955,-0.1938,-0.195,-0.1931,-0.1928,-0.1904,-0.1927,-0.1909,-0.1903,-0.1892,-0.1889,-0.1886,-0.1888,-0.1885,-0.1917,-0.1917,-0.1917,0,-0.189,-0.1903,-0.1916,-0.1926,-0.1935,-0.1948,-0.1955,-0.1955,-0.1962,-0.1961,-0.196,-0.1942,-0.1931,-0.1914,-0.1895,-0.1898,-0.1906,-0.1924,-0.189,-0.1887,-0.1884,-0.1887,-0.1884,-0.1917,-0.1917,-0.1917,-0.1917,0,-0.1888,-0.1901,-0.1904,-0.1921,-0.1931,-0.1939,-0.195,-0.1951,-0.1954,-0.1956,-0.1938,-0.1917,-0.1908,-0.1895,-0.189,-0.1863,-0.188,-0.1882,-0.1905,-0.188,-0.1884,-0.1881,-0.1916,-0.1916,-0.1916,-0.1916,0,0,-0.1857,-0.1895,-0.1895,-0.1908,-0.1931,-0.1939,-0.1943,-0.195,-0.1955,-0.1944,-0.1943,-0.1901,-0.1894,-0.1885,-0.1872,-0.1856,-0.1832,-0.1864,-0.1864,-0.1877,-0.1827,-0.1788,-0.1782,-0.1842,-0.1841,-0.1841,-0.1841,0,-0.1848,-0.1869,-0.1889,-0.1904,-0.1917,-0.1937,-0.1942,-0.195,-0.1954,-0.1954,-0.1926,-0.1915,-0.1892,-0.1886,-0.1862,-0.1841,-0.1824,-0.1833,-0.184,-0.184,-0.1817,-0.1776,-0.1749,-0.1742,-0.1838,-0.1838,-0.1837,0,-0.1833,-0.1852,-0.1868,-0.1905,-0.1913,-0.1921,-0.194,-0.1948,-0.1953,-0.1957,-0.1946,-0.1937,-0.19,-0.1884,-0.1841,-0.1857,-0.1833,-0.1816,-0.1816,-0.1779,-0.1795,-0.1779,-0.1733,-0.1746,-0.1833,-0.1834,-0.1834,0,-0.1799,-0.1835,-0.1848,-0.1859,-0.19,-0.1906,-0.1924,-0.1942,-0.1948,-0.1956,-0.1962,-0.194,-0.1919,-0.1892,-0.1842,-0.1853,-0.1799,-0.1814,-0.1758,-0.1757,-0.173,-0.1726,-0.1702,-0.1773,-0.1773,-0.1773,-0.1773,0,-0.1779,-0.1786,-0.1833,-0.1838,-0.1849,-0.1889,-0.1897,-0.1917,-0.194,-0.1946,-0.1954,-0.1944,-0.1918,-0.1887,-0.1853,-0.179,-0.1808,-0.1743,-0.1744,-0.1726,-0.1723,-0.173,-0.174,-0.1773,-0.1773,-0.1773,-0.1773,0,-0.1728,-0.1765,-0.1776,-0.1819,-0.1831,-0.1834,-0.1874,-0.1889,-0.1918,-0.1927,-0.1929,-0.1939,-0.1902,-0.1871,-0.1823,-0.1792,-0.1722,-0.1716,-0.1699,-0.1697,-0.166,-0.1671,-0.1609,-0.1565,-0.167,-0.1669,-0.1668,0,-0.1701,-0.1703,-0.1742,-0.1752,-0.1766,-0.1785,-0.1806,-0.1858,-0.1878,-0.1914,-0.1914,-0.1896,-0.187,-0.1795,-0.174,-0.1685,-0.1666,-0.1626,-0.162,-0.1637,-0.1651,-0.1644,-0.1611,-0.1594,-0.1593,-0.1591,-0.159,0,-0.1637,-0.165,-0.1663,-0.1682,-0.1703,-0.1722,-0.1756,-0.1773,-0.1837,-0.1854,-0.1863,-0.1851,-0.1799,-0.1731,-0.1659,-0.1613,-0.1605,-0.1598,-0.1619,-0.1577,-0.1565,-0.1532,-0.1633,-0.158,-0.1581,-0.1582,-0.1582,-0.1583,-0.1576,-0.1569,-0.159,-0.1595,-0.1624,-0.1638,-0.1626,-0.1685,-0.1703,-0.1711,-0.1771,-0.1734,-0.1728,-0.1623,-0.1584,-0.1528,-0.1514,-0.1502,-0.1513,-0.1505,-0.1449,-0.1522,-0.1464,-0.1464,-0.1465,-0.1465,-0.1465,0,-0.1494,-0.1497,-0.1505,-0.151,-0.1499,-0.1541,-0.1574,-0.1548,-0.1545,-0.1586,-0.1587,-0.1599,-0.157,-0.156,-0.1534,-0.1481,-0.1441,-0.1441,-0.1444,-0.1413,-0.1487,-0.147,-0.1407,-0.1407,-0.1407,-0.1407,-0.1407,-0.1407,-0.1453,-0.1426,-0.1428,-0.137,-0.1374,-0.1326,-0.1322,-0.1309,-0.1311,-0.1279,-0.1295,-0.131,-0.138,-0.1568,-0.1552,-0.149,-0.145,-0.1399,-0.1386,-0.1483,-0.149,-0.1498,-0.1485,-0.1425,-0.1425,-0.1287,-0.1286,-0.1285]},{"header":{"parameterUnit":"m.s-1","parameterCategory":2,"la1":30.2991,"la2":30.254,"lo1":-89.0895,"lo2":-89.0444,"dy":0.0017,"dx":0.0017,"nx":28,"ny":28,"refTime":"2024-04-15T03:00:00:Z","depth":"0","parameterNumber":3,"parameterNumberName":"V-component_of_CURRENTS"},"data":[0,0,0,0,0,0,0,0,0,0,0,0,0,0,0,0,0,0,0,0,0,0,0,0,0,0,0,0,0,0,0,0,0,0,0,0,0,0,0,0,0,0,0,0,0,0,0,0,0,0,0,0,0,0,0,0,0,0,-0.0257,-0.0256,0,-0.0186,-0.0185,-0.0184,-0.0132,-0.0131,-0.0131,-0.0131,-0.0022,-0.002,-0.0017,0,0,0,0,0,0,0,0,0,0,0,0,0,-0.0295,-0.0295,-0.0257,-0.0256,-0.0255,-0.0186,-0.0185,-0.0184,-0.0132,-0.0131,-0.0131,-0.013,-0.0023,-0.002,-0.0017,0,0,0,0,0,0,0,0,0,0,0,0,0,-0.0256,-0.0295,-0.0257,-0.0221,-0.0218,-0.0186,-0.0185,-0.0183,-0.0132,-0.0131,-0.0131,-0.013,-0.0024,-0.002,-0.0017,-0.0005,0,0,-0.0005,-0.0003,0,0,0,0,0,0,0,0,-0.0259,-0.0255,-0.0228,-0.0224,-0.022,-0.0168,-0.0159,-0.0122,-0.0132,-0.0164,-0.0131,-0.013,-0.0068,-0.0061,-0.0048,0.0,0.0005,-0.0005,-0.0002,-0.0001,0.0,0,0,0,0,0,0,0,-0.0261,-0.0257,-0.0228,-0.0227,-0.0222,-0.0191,-0.0185,-0.0151,-0.0119,-0.0161,-0.0157,-0.015,-0.0066,-0.0052,-0.0045,0.0007,-0.0005,-0.0002,0.0001,0.0002,0.0084,0.0084,0,0,0,0,0,0,-0.0275,-0.026,-0.023,-0.0226,-0.0239,-0.0191,-0.0185,-0.0184,-0.012,-0.011,-0.0151,-0.0148,-0.0059,-0.005,-0.0041,-0.0015,-0.0001,0.0003,0.0005,0.0084,0.0084,0.0084,0,0,0,0,0,0,-0.0276,-0.0274,-0.0233,-0.0241,-0.0234,-0.0192,-0.0191,-0.0183,-0.0169,-0.0113,-0.0102,-0.0145,-0.0058,-0.0046,-0.0016,-0.001,0.0004,0.0008,0.0084,0.0084,0.0084,0.0033,0,0,0,0,0,0,-0.0278,-0.0275,-0.028,-0.0243,-0.0234,-0.0219,-0.0192,-0.0182,-0.0166,-0.0161,-0.0104,-0.0093,-0.0057,-0.0022,-0.0012,-0.0005,0.0011,0.0085,0.0084,0.0084,0.0035,0.0031,0.0028,0,0,0,0,0,-0.028,-0.029,-0.0281,-0.0277,-0.0244,-0.022,-0.0213,-0.0179,-0.0166,-0.0163,-0.0127,-0.0095,-0.0016,-0.0019,-0.0008,0.0001,0.0085,0.0084,0.0084,0.0036,0.0032,0.0028,0,0,0,0,0,0,-0.0308,-0.0284,-0.0274,-0.0276,-0.0253,-0.0211,-0.0206,-0.0185,-0.0154,-0.015,-0.0099,-0.0086,-0.0058,-0.0024,-0.0029,0.0023,0.0041,0.0043,0.0,-0.0003,-0.0007,-0.0011,0.0014,0,0,0,0,0,-0.032,-0.0321,-0.0291,-0.0293,-0.0285,-0.0248,-0.0235,-0.0213,-0.0181,-0.0166,-0.0127,-0.0085,-0.005,-0.0025,0.0007,0.0037,0.0074,0.0051,0.0048,0.0044,0.0048,0.0095,0.0097,0.0083,0.0083,0.0083,0,0,-0.0331,-0.0318,-0.0318,-0.0299,-0.0279,-0.027,-0.0238,-0.0223,-0.0211,-0.016,-0.0134,-0.01,-0.0049,-0.0018,-0.0001,0.0014,0.0068,0.0044,0.0041,0.0047,0.0095,0.0097,0.0098,0.0083,0.0083,0.0083,0,0,-0.0355,-0.0345,-0.0354,-0.0338,-0.0314,-0.029,-0.0289,-0.0252,-0.0231,-0.0206,-0.0167,-0.0131,-0.0078,-0.0036,-0.0008,-0.001,0.004,-0.0,-0.001,0.0035,0.0037,0.0039,0.0087,0.0093,0.0007,0.0007,0.0007,0,-0.0371,-0.0377,-0.0352,-0.0354,-0.0344,-0.0303,-0.0306,-0.0279,-0.0236,-0.0216,-0.0206,-0.0124,-0.0084,-0.0034,-0.0034,-0.0016,0.0016,0.0,0.0031,0.0033,0.0036,0.0085,0.0093,0.0005,0.0005,0.0005,0.0005,0,-0.0399,-0.0402,-0.0406,-0.0396,-0.0381,-0.0377,-0.0339,-0.0319,-0.0291,-0.0256,-0.0212,-0.0158,-0.0104,-0.0087,-0.0059,-0.0016,0.0002,0.0012,0.0039,0.0034,0.0086,0.0095,0.0001,0.0002,0.0003,0.0003,0,0,-0.0437,-0.043,-0.043,-0.0433,-0.0404,-0.0394,-0.0374,-0.0338,-0.0316,-0.0273,-0.0239,-0.018,-0.0144,-0.0111,-0.0068,-0.0025,0.0022,0.0,0.0004,0.0044,0.0125,0.0168,0.0183,0.0035,0.0036,0.0037,0.0153,0,-0.0468,-0.049,-0.0469,-0.0478,-0.0486,-0.044,-0.0422,-0.0382,-0.0336,-0.0292,-0.0227,-0.0181,-0.0154,-0.0124,-0.008,-0.0001,0.0044,-0.001,0.0127,0.0131,0.0168,0.0194,0.0247,0.0357,0.0162,0.0163,0.0164,0,-0.0501,-0.0512,-0.0537,-0.0522,-0.0519,-0.0513,-0.0471,-0.0447,-0.037,-0.0333,-0.0271,-0.0213,-0.0134,-0.012,0.0013,-0.0024,0.0044,0.0101,0.0107,0.0174,0.0192,0.0332,0.0382,0.0506,0.0179,0.0178,0.0177,0,-0.0548,-0.0553,-0.0578,-0.0575,-0.0554,-0.0549,-0.0528,-0.0463,-0.0434,-0.0353,-0.0316,-0.0221,-0.0159,-0.0072,0.0054,0.0035,0.02,0.019,0.0294,0.0298,0.0385,0.0394,0.0571,0.0277,0.0276,0.0276,0.0276,0,-0.0592,-0.0605,-0.0605,-0.0618,-0.0634,-0.0597,-0.0585,-0.0546,-0.0477,-0.0429,-0.0342,-0.0272,-0.0145,-0.003,0.006,0.022,0.021,0.0306,0.0336,0.0368,0.0374,0.052,0.0551,0.028,0.0279,0.0279,0.0278,0,-0.0639,-0.064,-0.0666,-0.0661,-0.0661,-0.0672,-0.0635,-0.0615,-0.0544,-0.0477,-0.0449,-0.0297,-0.0133,0.0,0.0171,0.0244,0.0458,0.043,0.0463,0.0495,0.0688,0.0713,0.0888,0.0953,0.0561,0.0563,0.0565,0,-0.0665,-0.0688,-0.0709,-0.0729,-0.0731,-0.0735,-0.0731,-0.0665,-0.0628,-0.0479,-0.0443,-0.0264,-0.011,0.0159,0.033,0.0514,0.0567,0.0642,0.0612,0.0727,0.0776,0.0769,0.081,0.071,0.0713,0.0715,0.0717,0,-0.0712,-0.0721,-0.0746,-0.0792,-0.0807,-0.0812,-0.0791,-0.0768,-0.0665,-0.0571,-0.04,-0.0258,0.0034,0.0302,0.0531,0.0626,0.0735,0.069,0.0812,0.0916,0.092,0.0988,0.0602,0.0736,0.0734,0.0732,0.0731,0.0731,-0.074,-0.0775,-0.0811,-0.0849,-0.087,-0.0873,-0.0856,-0.0787,-0.0701,-0.0502,-0.0381,-0.0089,0.0268,0.0625,0.0735,0.0991,0.0914,0.1048,0.1071,0.1056,0.1115,0.0769,0.0928,0.0927,0.0926,0.0926,0.0925,0,-0.0772,-0.0812,-0.086,-0.0902,-0.0927,-0.0921,-0.0879,-0.0803,-0.0669,-0.0438,-0.0232,0.0265,0.061,0.0915,0.1254,0.1372,0.137,0.1418,0.1435,0.146,0.118,0.1183,0.1401,0.1401,0.1401,0.14,0.14,0.14,-0.0792,-0.085,-0.0878,-0.0935,-0.0959,-0.0948,-0.0914,-0.0748,-0.0557,-0.0158,0.0191,0.044,0.0858,0.1408,0.1716,0.1721,0.1811,0.1783,0.1825,0.1649,0.1616,0.1585,0.1599,0.19,0.1901,0.2105,0.2107,0.2109]}],[{"header":{"parameterUnit":"m.s-1","parameterCategory":2,"la1":30.2991,"la2":30.254,"lo1":-89.0895,"lo2":-89.0444,"dy":0.0017,"dx":0.0017,"nx":28,"ny":28,"refTime":"2024-04-15T03:00:00:Z","depth":"2","parameterNumber":2,"parameterNumberName":"U-component_of_CURRENTS"},"data":[0,0,0,0,0,0,0,0,0,0,0,0,0,0,0,0,0,0,0,0,0,0,0,0,0,0,0,0,0,0,0,0,0,0,0,0,0,0,0,0,0,0,0,0,0,0,0,0,0,0,0,0,0,0,0,0,0,0,-0.1866,-0.1866,0,-0.1884,-0.1884,-0.1884,-0.1881,-0.1881,-0.1881,-0.1881,-0.1906,-0.1906,-0.1907,0,0,0,0,0,0,0,0,0,0,0,0,0,-0.1817,-0.1818,-0.1866,-0.1866,-0.1867,-0.1884,-0.1884,-0.1884,-0.1881,-0.1881,-0.1881,-0.1881,-0.1905,-0.1906,-0.1907,0,0,0,0,0,0,0,0,0,0,0,0,0,-0.1835,-0.1818,-0.1866,-0.1869,-0.187,-0.1884,-0.1884,-0.1884,-0.1881,-0.1881,-0.1881,-0.1881,-0.1905,-0.1906,-0.1907,-0.1918,0,0,-0.1911,-0.1911,0,0,0,0,0,0,0,0,-0.1834,-0.1836,-0.1868,-0.1869,-0.187,-0.1882,-0.1876,-0.1896,-0.1881,-0.1875,-0.1881,-0.188,-0.19,-0.1901,-0.1902,-0.1919,-0.1921,-0.1911,-0.1912,-0.1912,-0.1913,0,0,0,0,0,0,0,-0.1833,-0.1836,-0.1871,-0.1869,-0.1869,-0.1865,-0.1867,-0.1879,-0.1887,-0.1875,-0.1876,-0.1881,-0.19,-0.1901,-0.1903,-0.1921,-0.1911,-0.1912,-0.1913,-0.1913,-0.1897,-0.1896,0,0,0,0,0,0,-0.1836,-0.1835,-0.1871,-0.1872,-0.1853,-0.1866,-0.1869,-0.1876,-0.1886,-0.1888,-0.1881,-0.1881,-0.1899,-0.1901,-0.1904,-0.1896,-0.1912,-0.1913,-0.1914,-0.1898,-0.1896,-0.1895,0,0,0,0,0,0,-0.1834,-0.1839,-0.187,-0.1855,-0.1859,-0.1868,-0.1876,-0.1877,-0.188,-0.1891,-0.1892,-0.1883,-0.1899,-0.1902,-0.1903,-0.1898,-0.1914,-0.1915,-0.1899,-0.1897,-0.1896,-0.1894,0,0,0,0,0,0,-0.1833,-0.1838,-0.1842,-0.1855,-0.186,-0.1874,-0.1876,-0.1877,-0.1884,-0.1884,-0.1894,-0.1896,-0.1899,-0.1901,-0.1904,-0.1899,-0.1916,-0.1901,-0.1898,-0.1896,-0.1895,-0.1892,-0.189,0,0,0,0,0,-0.1831,-0.1837,-0.1842,-0.1846,-0.1865,-0.1874,-0.1876,-0.188,-0.1884,-0.1882,-0.1883,-0.1895,-0.1889,-0.1901,-0.1905,-0.1901,-0.1902,-0.1899,-0.1896,-0.1897,-0.1893,-0.189,0,0,0,0,0,0,-0.1818,-0.1838,-0.1843,-0.1855,-0.1863,-0.1874,-0.1876,-0.1882,-0.1882,-0.1883,-0.1891,-0.1893,-0.1884,-0.1891,-0.1904,-0.1885,-0.1893,-0.1892,-0.1892,-0.1889,-0.1886,-0.188,-0.1917,0,0,0,0,0,-0.1818,-0.1824,-0.1842,-0.1849,-0.1856,-0.1867,-0.1871,-0.1876,-0.1881,-0.1882,-0.1887,-0.1885,-0.1876,-0.1882,-0.1874,-0.188,-0.1878,-0.1873,-0.187,-0.1868,-0.1862,-0.1849,-0.1845,-0.1887,-0.1887,-0.1887,0,0,-0.1813,-0.1825,-0.1828,-0.1846,-0.1854,-0.1862,-0.1868,-0.1877,-0.1877,-0.1885,-0.1883,-0.1876,-0.1871,-0.1863,-0.186,-0.1872,-0.1856,-0.1865,-0.1863,-0.1859,-0.1846,-0.1843,-0.1839,-0.1885,-0.1885,-0.1886,0,0,-0.1807,-0.182,-0.1824,-0.1834,-0.185,-0.1857,-0.1861,-0.1874,-0.1871,-0.1874,-0.1866,-0.1849,-0.186,-0.184,-0.1836,-0.1814,-0.1834,-0.1818,-0.1813,-0.1801,-0.1798,-0.1795,-0.1797,-0.1795,-0.1826,-0.1826,-0.1826,0,-0.18,-0.1812,-0.1825,-0.1835,-0.1844,-0.1857,-0.1865,-0.1865,-0.1872,-0.1871,-0.1871,-0.1853,-0.1842,-0.1824,-0.1806,-0.1808,-0.1816,-0.1833,-0.1799,-0.1796,-0.1794,-0.1796,-0.1793,-0.1826,-0.1826,-0.1826,-0.1826,0,-0.1798,-0.1811,-0.1815,-0.1831,-0.1841,-0.1849,-0.1859,-0.1862,-0.1866,-0.1867,-0.185,-0.1829,-0.182,-0.1808,-0.1802,-0.1775,-0.1792,-0.1793,-0.1814,-0.179,-0.1793,-0.1791,-0.1825,-0.1825,-0.1825,-0.1825,0,0,-0.1769,-0.1806,-0.1806,-0.1819,-0.1842,-0.185,-0.1854,-0.1861,-0.1867,-0.1857,-0.1856,-0.1814,-0.1808,-0.1799,-0.1786,-0.1768,-0.1746,-0.1777,-0.1776,-0.1789,-0.1739,-0.1701,-0.1695,-0.1755,-0.1754,-0.1753,-0.1753,0,-0.1761,-0.1782,-0.1801,-0.1817,-0.183,-0.1849,-0.1855,-0.1862,-0.1867,-0.1867,-0.1839,-0.1828,-0.1806,-0.1802,-0.1777,-0.1754,-0.1738,-0.1747,-0.175,-0.175,-0.1729,-0.1689,-0.1555,-0.1539,-0.1751,-0.175,-0.175,0,-0.1747,-0.1766,-0.1783,-0.182,-0.1827,-0.1835,-0.1855,-0.1863,-0.1868,-0.1872,-0.1861,-0.1852,-0.1815,-0.18,-0.1755,-0.1771,-0.1748,-0.173,-0.173,-0.1691,-0.1706,-0.1594,-0.1526,-0.1745,-0.1746,-0.1746,-0.1746,0,-0.1716,-0.1752,-0.1765,-0.1776,-0.1816,-0.1824,-0.1841,-0.1859,-0.1865,-0.1873,-0.1879,-0.1856,-0.1836,-0.1807,-0.1757,-0.1768,-0.1712,-0.1726,-0.1671,-0.1669,-0.155,-0.1539,-0.1684,-0.1684,-0.1684,-0.1684,-0.1684,0,-0.1698,-0.1706,-0.1752,-0.1757,-0.1769,-0.1808,-0.1818,-0.1837,-0.186,-0.1865,-0.1873,-0.1862,-0.1835,-0.1803,-0.1768,-0.1703,-0.1721,-0.1655,-0.1656,-0.1545,-0.1534,-0.1708,-0.1711,-0.1684,-0.1684,-0.1684,-0.1684,0,-0.165,-0.1686,-0.1698,-0.1741,-0.1753,-0.1757,-0.1797,-0.1811,-0.1841,-0.1848,-0.1851,-0.1858,-0.1821,-0.1788,-0.1738,-0.1706,-0.1658,-0.1629,-0.1506,-0.1492,-0.163,-0.1633,-0.1585,-0.1584,-0.1583,-0.1581,-0.1581,0,-0.1625,-0.1627,-0.1667,-0.1676,-0.1691,-0.1711,-0.1732,-0.1783,-0.1801,-0.1835,-0.1833,-0.1816,-0.1784,-0.1708,-0.1629,-0.1566,-0.1607,-0.1428,-0.1407,-0.1609,-0.1615,-0.162,-0.1624,-0.1256,-0.1252,-0.1249,-0.1247,0,-0.1563,-0.1577,-0.159,-0.1609,-0.1631,-0.1648,-0.1682,-0.1697,-0.1759,-0.1772,-0.1778,-0.1762,-0.1688,-0.1551,-0.1468,-0.1413,-0.1432,-0.137,-0.159,-0.1306,-0.1298,-0.1305,-0.1319,-0.1221,-0.1224,-0.1226,-0.1227,-0.1228,-0.1505,-0.1498,-0.1519,-0.1525,-0.1554,-0.1565,-0.1552,-0.1594,-0.1605,-0.1576,-0.1654,-0.1554,-0.1527,-0.1307,-0.1248,-0.1179,-0.1275,-0.1222,-0.123,-0.1241,-0.1207,-0.1198,-0.1097,-0.1098,-0.11,-0.1101,-0.1103,0,-0.142,-0.1428,-0.1436,-0.144,-0.1421,-0.1471,-0.1499,-0.1437,-0.1409,-0.1399,-0.1371,-0.1186,-0.1118,-0.1079,-0.0941,-0.0945,-0.0928,-0.091,-0.0884,-0.0909,-0.0932,-0.0882,-0.0685,-0.0684,-0.0683,-0.0682,0,0,-0.1378,-0.1349,-0.135,-0.1287,-0.1296,-0.1225,-0.1218,-0.1131,-0.1078,-0.0962,-0.0898,-0.0972,-0.1011,-0.0824,-0.0808,-0.0721,-0.0799,-0.0681,-0.101,-0.0999,-0.102,-0.1101,-0.1051,0,0,0,0,0]},{"header":{"parameterUnit":"m.s-1","parameterCategory":2,"la1":30.2991,"la2":30.254,"lo1":-89.0895,"lo2":-89.0444,"dy":0.0017,"dx":0.0017,"nx":28,"ny":28,"refTime":"2024-04-15T03:00:00:Z","depth":"2","parameterNumber":3,"parameterNumberName":"V-component_of_CURRENTS"},"data":[0,0,0,0,0,0,0,0,0,0,0,0,0,0,0,0,0,0,0,0,0,0,0,0,0,0,0,0,0,0,0,0,0,0,0,0,0,0,0,0,0,0,0,0,0,0,0,0,0,0,0,0,0,0,0,0,0,0,-0.0297,-0.0297,0,-0.0228,-0.0228,-0.0227,-0.0176,-0.0175,-0.0175,-0.0175,-0.0071,-0.0069,-0.0066,0,0,0,0,0,0,0,0,0,0,0,0,0,-0.0334,-0.0334,-0.0297,-0.0297,-0.0296,-0.0229,-0.0228,-0.0227,-0.0176,-0.0175,-0.0175,-0.0174,-0.0072,-0.0069,-0.0066,0,0,0,0,0,0,0,0,0,0,0,0,0,-0.0297,-0.0334,-0.0298,-0.0263,-0.0259,-0.0229,-0.0228,-0.0226,-0.0176,-0.0175,-0.0175,-0.0174,-0.0073,-0.0069,-0.0066,-0.0055,0,0,-0.0055,-0.0053,0,0,0,0,0,0,0,0,-0.0299,-0.0295,-0.0269,-0.0265,-0.0261,-0.0211,-0.0203,-0.0168,-0.0176,-0.0207,-0.0175,-0.0174,-0.0115,-0.0108,-0.0096,-0.005,-0.0046,-0.0054,-0.0052,-0.0051,-0.005,0,0,0,0,0,0,0,-0.0302,-0.0298,-0.0269,-0.0268,-0.0263,-0.0233,-0.0228,-0.0196,-0.0164,-0.0204,-0.02,-0.0194,-0.0113,-0.01,-0.0093,-0.0044,-0.0055,-0.0051,-0.0049,-0.0048,0.003,0.0029,0,0,0,0,0,0,-0.0315,-0.0301,-0.0272,-0.0267,-0.028,-0.0234,-0.0227,-0.0227,-0.0165,-0.0155,-0.0195,-0.0192,-0.0106,-0.0098,-0.0089,-0.0062,-0.0051,-0.0047,-0.0045,0.003,0.003,0.0029,0,0,0,0,0,0,-0.0316,-0.0313,-0.0274,-0.0282,-0.0276,-0.0234,-0.0234,-0.0226,-0.0211,-0.0158,-0.0148,-0.0188,-0.0105,-0.0094,-0.0065,-0.0058,-0.0046,-0.0042,0.003,0.003,0.003,-0.0014,0,0,0,0,0,0,-0.0318,-0.0314,-0.032,-0.0284,-0.0276,-0.0261,-0.0234,-0.0225,-0.0209,-0.0205,-0.0149,-0.0139,-0.0104,-0.0071,-0.0062,-0.0053,-0.004,0.003,0.003,0.003,-0.0013,-0.0016,-0.0019,0,0,0,0,0,-0.0319,-0.0329,-0.0321,-0.0317,-0.0284,-0.0261,-0.0255,-0.0222,-0.0209,-0.0206,-0.0171,-0.0141,-0.0065,-0.0068,-0.0057,-0.0047,0.003,0.003,0.003,-0.0011,-0.0015,-0.0019,0,0,0,0,0,0,-0.0347,-0.0324,-0.0314,-0.0316,-0.0293,-0.0253,-0.0248,-0.0227,-0.0198,-0.0194,-0.0144,-0.0132,-0.0105,-0.0073,-0.0078,-0.0026,-0.0011,-0.001,-0.0046,-0.005,-0.0053,-0.0055,-0.0037,0,0,0,0,0,-0.0358,-0.0359,-0.033,-0.0332,-0.0324,-0.0288,-0.0275,-0.0254,-0.0223,-0.0209,-0.0171,-0.0131,-0.0098,-0.0073,-0.0042,-0.0013,0.0022,0.0001,-0.0002,-0.0005,-0.0,0.0047,0.0049,0.0029,0.0029,0.0029,0,0,-0.0368,-0.0356,-0.0356,-0.0338,-0.0318,-0.0309,-0.0279,-0.0264,-0.0251,-0.0203,-0.0177,-0.0145,-0.0096,-0.0065,-0.0049,-0.0036,0.0019,-0.0005,-0.0008,-0.0001,0.0047,0.0049,0.0051,0.0029,0.0029,0.0029,0,0,-0.0391,-0.0382,-0.039,-0.0375,-0.0352,-0.0327,-0.0327,-0.0291,-0.027,-0.0245,-0.0207,-0.0171,-0.0122,-0.0079,-0.0053,-0.0053,-0.0006,-0.0045,-0.005,-0.0006,-0.0003,-0.0001,0.0044,0.0051,-0.0037,-0.0037,-0.0038,0,-0.0406,-0.0412,-0.0388,-0.039,-0.0379,-0.034,-0.0342,-0.0314,-0.0272,-0.0252,-0.0244,-0.0164,-0.0125,-0.0074,-0.0073,-0.0058,-0.0028,-0.0042,-0.0009,-0.0006,-0.0003,0.0043,0.0051,-0.004,-0.0039,-0.0039,-0.0039,0,-0.0433,-0.0435,-0.0438,-0.0427,-0.0412,-0.0408,-0.0369,-0.035,-0.0322,-0.0288,-0.0243,-0.0191,-0.0138,-0.0122,-0.0095,-0.005,-0.0036,-0.0027,-0.0001,-0.0003,0.0045,0.0054,-0.0043,-0.0042,-0.0041,-0.0041,0,0,-0.047,-0.0461,-0.0461,-0.0463,-0.0433,-0.0423,-0.04,-0.0364,-0.0342,-0.0299,-0.0264,-0.0204,-0.0171,-0.0138,-0.0097,-0.0053,-0.0006,-0.0032,-0.0029,0.001,0.0094,0.0132,0.0146,0.0006,0.0007,0.0008,0.0118,0,-0.0498,-0.0518,-0.0496,-0.0503,-0.0509,-0.0464,-0.0444,-0.0403,-0.0358,-0.0314,-0.0249,-0.0204,-0.0177,-0.015,-0.0104,-0.0029,0.0016,-0.0036,0.0093,0.0097,0.0129,0.0157,0.0091,0.0186,0.0127,0.0129,0.013,0,-0.053,-0.0539,-0.056,-0.0544,-0.054,-0.0534,-0.049,-0.0465,-0.0388,-0.0352,-0.029,-0.0233,-0.0154,-0.0141,-0.001,-0.0047,0.0019,0.0073,0.0079,0.0138,0.0152,0.018,0.0205,0.0145,0.0144,0.0143,0.0142,0,-0.0575,-0.0577,-0.0599,-0.0596,-0.0573,-0.0567,-0.0546,-0.048,-0.0451,-0.0371,-0.0335,-0.0239,-0.018,-0.0093,0.0029,0.001,0.017,0.0161,0.0258,0.0261,0.0244,0.0244,0.0248,0.0248,0.0248,0.0247,0.0247,0,-0.0616,-0.0628,-0.0626,-0.0639,-0.0653,-0.0614,-0.0602,-0.0562,-0.0494,-0.0448,-0.036,-0.0293,-0.0166,-0.0054,0.0034,0.0187,0.0181,0.027,0.0298,0.0227,0.0225,0.0218,0.0213,0.0252,0.0251,0.025,0.0249,0,-0.0663,-0.0662,-0.0686,-0.068,-0.0679,-0.0689,-0.0652,-0.0633,-0.0562,-0.0498,-0.0471,-0.0321,-0.0164,-0.0031,0.0137,0.0208,0.0337,0.0388,0.0301,0.0317,0.0393,0.0385,0.0507,0.0509,0.0511,0.0513,0.0514,0,-0.0688,-0.071,-0.0729,-0.0749,-0.075,-0.0753,-0.075,-0.0684,-0.0648,-0.0504,-0.047,-0.0297,-0.0152,0.011,0.0252,0.0424,0.0418,0.0464,0.0422,0.0408,0.0423,0.0411,0.04,0.0379,0.0379,0.0379,0.0379,0,-0.0734,-0.0743,-0.0766,-0.0812,-0.0827,-0.0833,-0.0812,-0.0791,-0.069,-0.0602,-0.044,-0.0306,-0.0047,0.0144,0.0358,0.0438,0.0429,0.0475,0.0496,0.0325,0.0298,0.0308,0.03,0.0381,0.0381,0.0381,0.038,0.038,-0.0762,-0.0797,-0.0832,-0.0871,-0.0891,-0.0897,-0.0882,-0.0826,-0.0748,-0.0596,-0.0456,-0.025,-0.0053,0.0246,0.0393,0.0498,0.0502,0.0504,0.0499,0.0495,0.0463,0.044,0.0544,0.0545,0.0546,0.0546,0.0547,0,-0.0795,-0.0835,-0.0882,-0.0925,-0.0953,-0.0946,-0.0908,-0.0868,-0.076,-0.0619,-0.0447,-0.0224,0.0011,0.0206,0.0378,0.051,0.0466,0.0519,0.0425,0.0422,0.042,0.038,0.0442,0.0443,0.0443,0.0443,0,0,-0.0816,-0.0873,-0.09,-0.0963,-0.0988,-0.0997,-0.0967,-0.0883,-0.078,-0.0621,-0.0473,-0.0266,-0.0005,0.0104,0.026,0.0349,0.0342,0.0345,0.0408,0.0271,0.0268,0.0387,0.0321,0,0,0,0,0]}],[{"header":{"parameterUnit":"m.s-1","parameterCategory":2,"la1":30.2991,"la2":30.254,"lo1":-89.0895,"lo2":-89.0444,"dy":0.0017,"dx":0.0017,"nx":28,"ny":28,"refTime":"2024-04-15T03:00:00:Z","depth":"4","parameterNumber":2,"parameterNumberName":"U-component_of_CURRENTS"},"data":[0,0,0,0,0,0,0,0,0,0,0,0,0,0,0,0,0,0,0,0,0,0,0,0,0,0,0,0,0,0,0,0,0,0,0,0,0,0,0,0,0,0,0,0,0,0,0,0,0,0,0,0,0,0,0,0,0,0,-0.1225,-0.1226,0,-0.1279,-0.1279,-0.128,-0.1321,-0.1322,-0.1322,-0.1323,-0.1393,-0.1394,-0.1396,0,0,0,0,0,0,0,0,0,0,0,0,0,-0.1148,-0.1149,-0.1225,-0.1226,-0.1227,-0.1279,-0.1279,-0.128,-0.1321,-0.1322,-0.1322,-0.1323,-0.1392,-0.1394,-0.1396,0,0,0,0,0,0,0,0,0,0,0,0,0,-0.1188,-0.115,-0.1225,-0.1255,-0.1258,-0.1279,-0.128,-0.128,-0.1321,-0.1322,-0.1322,-0.1323,-0.1392,-0.1394,-0.1396,-0.1393,0,0,-0.1402,-0.1403,0,0,0,0,0,0,0,0,-0.1186,-0.1191,-0.1249,-0.1253,-0.1256,-0.1295,-0.1278,-0.1319,-0.1321,-0.1295,-0.1323,-0.1324,-0.1362,-0.1367,-0.1373,-0.1397,-0.14,-0.1403,-0.1404,-0.1405,-0.1405,0,0,0,0,0,0,0,-0.1183,-0.1189,-0.1245,-0.125,-0.1254,-0.1262,-0.1268,-0.1286,-0.1323,-0.1298,-0.1301,-0.1309,-0.1364,-0.1371,-0.1375,-0.1401,-0.1402,-0.1404,-0.1406,-0.1406,-0.1436,-0.1435,0,0,0,0,0,0,-0.1179,-0.1186,-0.1243,-0.1247,-0.1224,-0.1263,-0.127,-0.1281,-0.1323,-0.133,-0.1308,-0.1311,-0.1367,-0.1372,-0.1378,-0.1409,-0.1405,-0.1407,-0.1408,-0.1436,-0.1436,-0.1435,0,0,0,0,0,0,-0.1177,-0.1184,-0.1241,-0.1219,-0.1227,-0.1263,-0.1275,-0.1282,-0.1311,-0.1331,-0.1338,-0.1334,-0.1368,-0.1375,-0.1405,-0.1411,-0.1408,-0.1409,-0.1437,-0.1436,-0.1435,-0.145,0,0,0,0,0,0,-0.1175,-0.1183,-0.1199,-0.1218,-0.1228,-0.1263,-0.1275,-0.1282,-0.1314,-0.1318,-0.1355,-0.1361,-0.1369,-0.1401,-0.1407,-0.1413,-0.1411,-0.1437,-0.1437,-0.1436,-0.145,-0.145,-0.145,0,0,0,0,0,-0.1172,-0.1186,-0.1199,-0.1207,-0.1245,-0.1264,-0.1269,-0.1296,-0.1315,-0.1326,-0.135,-0.1361,-0.1399,-0.1403,-0.1409,-0.1417,-0.1438,-0.1437,-0.1436,-0.1451,-0.145,-0.145,0,0,0,0,0,0,-0.1164,-0.1193,-0.1207,-0.1231,-0.1251,-0.1272,-0.129,-0.1308,-0.1336,-0.1348,-0.1366,-0.1373,-0.1395,-0.1402,-0.1406,-0.1418,-0.1416,-0.1416,-0.1425,-0.1425,-0.1425,-0.1415,-0.1413,0,0,0,0,0,-0.1168,-0.1187,-0.1212,-0.1233,-0.1245,-0.1272,-0.1288,-0.1306,-0.1329,-0.1344,-0.1367,-0.1384,-0.139,-0.1407,-0.1413,-0.1433,-0.1423,-0.1436,-0.1436,-0.1436,-0.143,-0.1412,-0.141,-0.1432,-0.1432,-0.1432,0,0,-0.1171,-0.119,-0.1203,-0.1233,-0.1253,-0.1272,-0.1284,-0.1313,-0.1329,-0.1346,-0.1382,-0.1388,-0.1393,-0.1406,-0.1417,-0.142,-0.1426,-0.1434,-0.1435,-0.1428,-0.1411,-0.1409,-0.1407,-0.1431,-0.1431,-0.1431,0,0,-0.1178,-0.1205,-0.1221,-0.1239,-0.1272,-0.1286,-0.1298,-0.1329,-0.1346,-0.1377,-0.138,-0.1386,-0.1421,-0.141,-0.1411,-0.1412,-0.142,-0.1422,-0.1426,-0.141,-0.1408,-0.1406,-0.14,-0.1398,-0.1429,-0.1429,-0.1429,0,-0.1183,-0.1207,-0.1228,-0.1247,-0.1267,-0.1294,-0.1315,-0.133,-0.1367,-0.1379,-0.1392,-0.1411,-0.1413,-0.1411,-0.1406,-0.1412,-0.1414,-0.1432,-0.141,-0.1408,-0.1406,-0.1401,-0.1398,-0.1429,-0.1429,-0.1429,-0.1429,0,-0.1193,-0.1223,-0.1235,-0.1268,-0.1289,-0.1313,-0.1336,-0.1359,-0.1387,-0.14,-0.1416,-0.1412,-0.1422,-0.1418,-0.1417,-0.1403,-0.1413,-0.1409,-0.1414,-0.1405,-0.14,-0.1396,-0.143,-0.143,-0.143,-0.143,0,0,-0.1173,-0.1232,-0.1238,-0.1264,-0.1306,-0.1323,-0.135,-0.1376,-0.1399,-0.1419,-0.1437,-0.1426,-0.1429,-0.1426,-0.142,-0.1402,-0.1385,-0.1407,-0.1406,-0.1407,-0.1367,-0.1288,-0.1277,-0.1391,-0.139,-0.1389,-0.1372,0,-0.1178,-0.1219,-0.1247,-0.129,-0.1314,-0.1349,-0.1372,-0.1399,-0.1424,-0.1445,-0.1433,-0.1447,-0.1431,-0.1441,-0.1418,-0.1397,-0.1377,-0.1391,-0.1369,-0.1369,-0.1304,-0.127,-0.1387,-0.137,-0.1369,-0.1368,-0.1368,0,-0.1173,-0.1205,-0.1249,-0.131,-0.1324,-0.1353,-0.1401,-0.1425,-0.145,-0.147,-0.1476,-0.1478,-0.1456,-0.1443,-0.1398,-0.1417,-0.1388,-0.1366,-0.1365,-0.128,-0.1282,-0.1377,-0.1362,-0.1363,-0.1363,-0.1364,-0.1364,0,-0.114,-0.1205,-0.1243,-0.1263,-0.133,-0.136,-0.1395,-0.1434,-0.1453,-0.1485,-0.1501,-0.149,-0.1484,-0.1449,-0.14,-0.1411,-0.1347,-0.1355,-0.1255,-0.125,-0.1325,-0.1327,-0.1308,-0.1308,-0.1308,-0.1308,-0.1308,0,-0.1122,-0.1155,-0.1237,-0.1256,-0.13,-0.1355,-0.1396,-0.1429,-0.1471,-0.1481,-0.1509,-0.1498,-0.1485,-0.1451,-0.1409,-0.1313,-0.1352,-0.1238,-0.1229,-0.1333,-0.1335,-0.1323,-0.1325,-0.1307,-0.1308,-0.1308,-0.1308,0,-0.1071,-0.113,-0.1175,-0.1257,-0.1285,-0.1314,-0.139,-0.1415,-0.1466,-0.1479,-0.149,-0.1504,-0.1458,-0.1429,-0.1369,-0.131,-0.1239,-0.1195,-0.1311,-0.1312,-0.1159,-0.1162,-0.1088,-0.1085,-0.1083,-0.108,-0.1078,0,-0.1046,-0.1067,-0.1159,-0.1186,-0.1226,-0.1283,-0.132,-0.1395,-0.1413,-0.1459,-0.1449,-0.144,-0.1429,-0.1278,-0.1265,-0.1184,-0.1158,-0.1132,-0.1131,-0.1132,-0.1131,-0.1139,-0.1145,-0.1074,-0.1073,-0.1073,-0.1072,0,-0.0987,-0.103,-0.1067,-0.1121,-0.1172,-0.1212,-0.1268,-0.1273,-0.1345,-0.1412,-0.1365,-0.1325,-0.1269,-0.121,-0.1151,-0.1092,-0.1157,-0.1104,-0.1109,-0.1108,-0.1114,-0.1118,-0.1127,-0.1063,-0.1064,-0.1065,-0.1065,0,-0.0939,-0.0948,-0.1002,-0.1034,-0.1096,-0.1109,-0.1156,-0.1175,-0.1201,-0.1267,-0.1245,-0.123,-0.1256,-0.116,-0.1103,-0.1042,-0.1024,-0.0993,-0.1004,-0.1014,-0.0992,-0.099,-0.0874,0,0,0,0,0,-0.0882,-0.0879,-0.0909,-0.0937,-0.0993,-0.1015,-0.1103,-0.1153,-0.1231,-0.1171,-0.1205,-0.1147,-0.1069,-0.1061,-0.0975,-0.1054,-0.1022,-0.0951,-0.0992,-0.101,-0.1021,-0.1,0,0,0,0,0,0,-0.0845,-0.0868,-0.0872,-0.0841,-0.0836,-0.0879,-0.0925,-0.0987,-0.0961,-0.1045,-0.1002,-0.1068,-0.0999,-0.1077,-0.094,-0.0938,-0.0941,-0.0956,-0.0953,-0.1004,-0.1014,-0.1023,-0.1005,0,0,0,0,0]},{"header":{"parameterUnit":"m.s-1","parameterCategory":2,"la1":30.2991,"la2":30.254,"lo1":-89.0895,"lo2":-89.0444,"dy":0.0017,"dx":0.0017,"nx":28,"ny":28,"refTime":"2024-04-15T03:00:00:Z","depth":"4","parameterNumber":3,"parameterNumberName":"V-component_of_CURRENTS"},"data":[0,0,0,0,0,0,0,0,0,0,0,0,0,0,0,0,0,0,0,0,0,0,0,0,0,0,0,0,0,0,0,0,0,0,0,0,0,0,0,0,0,0,0,0,0,0,0,0,0,0,0,0,0,0,0,0,0,0,-0.0285,-0.0284,0,-0.0243,-0.0242,-0.0242,-0.0213,-0.0213,-0.0212,-0.0212,-0.0146,-0.0144,-0.0143,0,0,0,0,0,0,0,0,0,0,0,0,0,-0.0303,-0.0303,-0.0285,-0.0284,-0.0284,-0.0243,-0.0242,-0.0242,-0.0213,-0.0213,-0.0212,-0.0212,-0.0147,-0.0145,-0.0143,0,0,0,0,0,0,0,0,0,0,0,0,0,-0.0281,-0.0303,-0.0285,-0.0265,-0.0263,-0.0243,-0.0242,-0.0242,-0.0213,-0.0213,-0.0212,-0.0212,-0.0147,-0.0145,-0.0142,-0.0132,0,0,-0.0135,-0.0134,0,0,0,0,0,0,0,0,-0.0282,-0.028,-0.0269,-0.0266,-0.0264,-0.0233,-0.0224,-0.0204,-0.0213,-0.0231,-0.0212,-0.0212,-0.0174,-0.0169,-0.0161,-0.0129,-0.0126,-0.0135,-0.0133,-0.0132,-0.0132,0,0,0,0,0,0,0,-0.0284,-0.0282,-0.0268,-0.0268,-0.0265,-0.0246,-0.0242,-0.022,-0.0203,-0.0229,-0.0227,-0.0224,-0.0172,-0.0163,-0.0159,-0.0125,-0.0135,-0.0133,-0.0131,-0.013,-0.0078,-0.0078,0,0,0,0,0,0,-0.0293,-0.0283,-0.0269,-0.0266,-0.0274,-0.0246,-0.0242,-0.0243,-0.0204,-0.0198,-0.0224,-0.0223,-0.0168,-0.0162,-0.0157,-0.0129,-0.0132,-0.013,-0.0129,-0.0078,-0.0078,-0.0078,0,0,0,0,0,0,-0.0293,-0.0292,-0.0271,-0.0274,-0.027,-0.0246,-0.0247,-0.0242,-0.0236,-0.02,-0.0194,-0.0223,-0.0167,-0.016,-0.0142,-0.0127,-0.0129,-0.0127,-0.0078,-0.0078,-0.0078,-0.0083,0,0,0,0,0,0,-0.0294,-0.0293,-0.0299,-0.0275,-0.027,-0.0263,-0.0247,-0.0242,-0.0234,-0.0232,-0.0197,-0.019,-0.0167,-0.0146,-0.0139,-0.0124,-0.0125,-0.0078,-0.0078,-0.0078,-0.0083,-0.0083,-0.0083,0,0,0,0,0,-0.0295,-0.0302,-0.0299,-0.0298,-0.0279,-0.0263,-0.0259,-0.024,-0.0235,-0.0233,-0.0211,-0.0192,-0.0142,-0.0144,-0.0136,-0.012,-0.0078,-0.0078,-0.0078,-0.0082,-0.0083,-0.0083,0,0,0,0,0,0,-0.0313,-0.0299,-0.0296,-0.0299,-0.0285,-0.0258,-0.0257,-0.0245,-0.0227,-0.0226,-0.0194,-0.0186,-0.0165,-0.0147,-0.015,-0.0107,-0.0106,-0.0105,-0.0112,-0.0112,-0.0112,-0.0108,-0.0123,0,0,0,0,0,-0.0321,-0.0324,-0.0306,-0.031,-0.0305,-0.0284,-0.0276,-0.0264,-0.0244,-0.0236,-0.0211,-0.0186,-0.016,-0.0141,-0.0122,-0.0097,-0.0074,-0.0082,-0.0083,-0.0083,-0.0076,-0.0031,-0.0027,-0.0079,-0.0079,-0.0079,0,0,-0.033,-0.0323,-0.0325,-0.0314,-0.0303,-0.0293,-0.0278,-0.0271,-0.0256,-0.0231,-0.021,-0.0191,-0.0157,-0.013,-0.0118,-0.0111,-0.006,-0.0083,-0.0084,-0.0076,-0.0031,-0.0026,-0.0021,-0.0079,-0.0079,-0.0079,0,0,-0.0344,-0.0343,-0.0348,-0.0337,-0.0324,-0.0307,-0.0307,-0.0284,-0.0269,-0.0251,-0.0226,-0.0197,-0.0167,-0.0127,-0.0105,-0.0097,-0.0071,-0.0098,-0.0083,-0.0041,-0.0035,-0.0031,-0.0007,-0.0,-0.0089,-0.0089,-0.0089,0,-0.0356,-0.0358,-0.0347,-0.0344,-0.0336,-0.0315,-0.0311,-0.0289,-0.0262,-0.0244,-0.0248,-0.0187,-0.0158,-0.0103,-0.0099,-0.0093,-0.0079,-0.0082,-0.0039,-0.0034,-0.0029,-0.0006,0.0001,-0.0089,-0.0089,-0.0089,-0.0089,0,-0.0368,-0.0369,-0.037,-0.0359,-0.0348,-0.0343,-0.0313,-0.0298,-0.0282,-0.0255,-0.0215,-0.0178,-0.0137,-0.0122,-0.0105,-0.0052,-0.0058,-0.0052,-0.0035,-0.0024,-0.0001,0.0007,-0.0089,-0.0089,-0.0089,-0.0089,0,0,-0.0394,-0.0382,-0.0383,-0.0382,-0.0356,-0.0349,-0.0322,-0.0287,-0.0268,-0.0235,-0.0202,-0.0146,-0.0127,-0.0101,-0.0072,-0.0027,0.002,-0.0026,-0.0023,0.0001,0.0098,0.0069,0.0075,0.003,0.0032,0.0033,0.0095,0,-0.0407,-0.0413,-0.0396,-0.0392,-0.0391,-0.0359,-0.0337,-0.0301,-0.0269,-0.0232,-0.0173,-0.014,-0.0117,-0.0102,-0.005,-0.0002,0.0043,0.0002,0.0079,0.0081,0.0059,0.0084,0.0038,0.0101,0.0103,0.0104,0.0106,0,-0.0421,-0.0423,-0.0431,-0.0413,-0.0409,-0.0403,-0.0366,-0.0342,-0.0275,-0.025,-0.0193,-0.0154,-0.0076,-0.0071,0.004,0.0008,0.0053,0.0092,0.0096,0.0079,0.0068,0.009,0.0121,0.012,0.0118,0.0117,0.0116,0,-0.0449,-0.0443,-0.0454,-0.0449,-0.0427,-0.0423,-0.0407,-0.0353,-0.0331,-0.0262,-0.0241,-0.0148,-0.0109,-0.0029,0.0055,0.0046,0.0166,0.0165,0.0185,0.0183,0.0193,0.0187,0.0246,0.0246,0.0246,0.0246,0.0245,0,-0.0465,-0.0472,-0.0476,-0.0482,-0.0495,-0.0462,-0.0458,-0.0424,-0.0372,-0.0343,-0.026,-0.0216,-0.0097,-0.0015,0.0058,0.0146,0.0172,0.0196,0.0205,0.0186,0.0179,0.0198,0.0191,0.0248,0.0247,0.0247,0.0247,0,-0.049,-0.0492,-0.0509,-0.0507,-0.0513,-0.0524,-0.0509,-0.0497,-0.0443,-0.0403,-0.0383,-0.0262,-0.0154,-0.004,0.0095,0.014,0.023,0.0254,0.0218,0.0222,0.0216,0.0209,0.0284,0.0284,0.0283,0.0283,0.0283,0,-0.05,-0.0516,-0.0545,-0.0569,-0.0576,-0.0588,-0.0594,-0.0546,-0.0525,-0.0429,-0.0409,-0.0291,-0.0206,-0.0033,0.0082,0.0221,0.0236,0.0272,0.0257,0.0223,0.0224,0.0217,0.021,0.0282,0.0282,0.0282,0.0282,0,-0.0521,-0.0542,-0.0562,-0.0617,-0.0644,-0.066,-0.0659,-0.0647,-0.0579,-0.0532,-0.0421,-0.031,-0.0185,-0.0039,0.0069,0.0168,0.0244,0.0269,0.027,0.0257,0.0222,0.0222,0.0216,0.0281,0.0281,0.0281,0.0282,0,-0.0541,-0.0571,-0.0612,-0.0655,-0.0697,-0.0717,-0.0709,-0.0667,-0.0632,-0.0515,-0.048,-0.0323,-0.022,-0.0067,0.0035,0.0128,0.0147,0.0162,0.0169,0.0171,0.0117,0.0055,0.008,0,0,0,0,0,-0.0554,-0.0593,-0.0641,-0.0692,-0.0736,-0.0754,-0.0743,-0.0718,-0.0653,-0.0585,-0.0526,-0.0404,-0.0221,-0.0127,-0.0039,0.001,0.0144,0.0111,0.0159,0.0276,0.0277,0.023,0,0,0,0,0,0,-0.0566,-0.0619,-0.0645,-0.0713,-0.0753,-0.0791,-0.0784,-0.0739,-0.0684,-0.0603,-0.0498,-0.0412,-0.023,-0.0279,-0.0048,-0.0015,0.002,0.0211,0.0212,0.0275,0.0276,0.0277,0.0229,0,0,0,0,0]}]]